CAPE
0 0 0 0 0 0 0 0 0 0 0 0 0 0 0 0 0 0 0 0 0 0 0 0 0 0 0 0 0 0 0 0 0 0 0 0 0 0 0 0 0 0 0 0
0 0 0 0 0 0 0 0 0 0 0 0 0 0 0 0 0 0 0 0 0 0 0 0 0 0 0 0 0 0 0 0 0 0 0 0 0 0 0 0 0 0 0 0
0 0 0 0 0 0 0 0 0 0 0 0 0 0 0 0 0 0 0 0 0 0 0 0 0 0 0 0 0 0 0 0 0 0 0 0 0 0 0 0 0 0 0 0
0 0 0 0 0 0 0 1 0 0 0 0 0 0 0 0 0 0 0 0 0 0 0 0 0 0 0 0 0 0 0 0 0 0 0 0 0 0 0 0 0 0 0 0
0 0 0 0 0 0 0 0 0 1 0 0 0 0 0 0 0 0 0 0 0 0 0 0 0 0 0 0 0 0 0 0 0 0 0 0 0 0 0 0 0 0 0 0
0 0 0 1 0 0 0 0 1 2 0 0 0 0 0 0 0 0 0 0 0 0 0 0 0 0 0 0 0 0 0 0 0 0 0 0 0 0 0 0 0 0 0 0
3 10 0 0 0 0 0 0 0 1 1 0 0 0 0 0 0 0 0 0 0 0 0 0 0 0 0 0 0 0 0 0 0 0 0 0 0 0 0 0 0 0 0 0
0 0 0 0 0 0 11 44 2 0 9 0 0 0 0 0 0 0 0 0 0 0 0 0 0 0 0 0 0 0 0 0 0 0 0 0 0 0 0 0 0 0 0 0
0 0 0 0 0 0 0 0 0 0 1 0 0 0 0 0 0 0 0 0 0 0 0 0 0 0 0 0 0 0 0 0 0 0 0 0 0 0 0 0 0 0 0 0
0 0 0 0 0 0 0 0 0 0 0 0 0 0 0 0 0 0 0 0 0 0 0 0 0 0 0 0 0 0 0 0 0 0 0 0 0 0 0 0 0 0 0 0
0 0 0 0 0 0 0 0 0 0 0 0 0 0 0 0 0 0 0 0 0 0 0 0 0 0 0 0 0 0 0 0 0 0 0 0 0 0 0 0 0 0 0 0
0 0 0 0 0 0 0 0 0 0 0 0 0 0 0 0 0 0 0 0 0 0 0 0 0 0 0 0 0 0 0 0 0 0 0 0 0 0 0 0 0 0 0 0
0 0 0 0 0 0 0 0 0 0 0 0 0 0 0 0 0 0 0 0 0 0 0 0 0 0 0 0 0 0 0 0 0 0 0 0 0 0 0 0 0 0 0 0
0 0 0 0 0 0 0 0 0 0 0 0 0 0 0 0 0 0 0 0 0 0 0 0 0 0 0 0 0 1 0 0 0 0 0 0 0 0 0 0 0 0 0 0
0 0 0 0 0 0 0 0 0 0 0 0 0 0 0 0 0 0 0 0 0 0 0 0 0 0 0 0 0 0 0 0 0 0 0 0 0 0 0 0 0 0 0 0
0 0 0 0 0 0 0 0 0 0 0 0 0 0 0 0 0 0 0 0 0 0 0 0 0 0 0 0 0 0 0 0 0 0 0 0 0 0 0 0 0 0 0 0
0 0 0 0 0 0 0 0 0 0 0 0 0 0 0 0 0 0 0 0 0 0 0 0 0 0 0 0 3 0 0 0 0 0 0 0 0 0 0 0 0 0 0 0
0 0 0 0 0 0 0 0 0 0 0 0 0 0 0 0 0 0 0 0 0 0 0 0 0 0 0 0 0 1 0 0 0 0 0 0 0 0 0 0 0 0 0 0
0 0 0 0 0 0 0 0 0 0 0 0 0 0 0 0 0 0 0 0 0 0 0 0 0 0 0 0 0 0 0 0 0 0 0 0 0 0 0 0 0 0 0 0
1 1 0 0 1 0 0 0 0 0 0 0 0 0 0 0 0 0 0 0 0 0 0 0 0 0 0 0 0 0 0 0 0 0 0 0 0 0 0 0 0 0 0 0
0 0 0 0 0 0 0 0 0 0 0 0 0 0 0 0 0 0 0 0 0 0 0 0 0 0 0 0 0 0 1 0 0 0 0 0 0 0 0 0 0 0 0 0
0 0 0 0 0 0 0 0 0 0 0 0 0 1 0 0 0 0 0 0 0 0 0 0 0 0 0 0 0 0 1 0 0 0 0 0 0 0 0 0 0 0 0 0
0 0 0 0 0 0 0 0 0 0 0 3 1 1 3 3 1 0 1 0 0 0 0 0 0 0 0 0 0 0 0 0 0 0 0 0 0 0 0 0 0 0 0 0
0 0 0 0 0 0 0 0 0 0 0 0 1 0 1 1 1 0 0 0 0 0 0 0 0 0 0 0 0 0 0 0 0 0 0 0 0 0 0 0 0 0 0 0
0 0 0 0 0 0 0 0 0 1 4 6 5 3 2 3 0 0 0 0 0 0 0 0 0 0 0 0 0 0 0 0 0 0 0 0 0 0 0 0 0 0 0 0
0 0 0 0 0 0 0 1 6 5 4 3 3 8 9 5 1 4 0 0 0 0 0 0 0 0 0 0 0 0 0 0 0 0 0 0 0 0 0 0 0 0 0 0
0 0 0 0 0 0 0 3 4 1 1 2 7 1 0 0 0 0 0 0 0 0 0 0 0 0 0 0 0 0 0 0 0 0 0 0 0 0 0 0 0 0 0 0
CIN
0 0 0 0 0 0 0 0 0 0 0 0 0 0 0 0 0 0 0 0 0 0 0 0 0 0 0 0 0 0 0 0 0 0 0 0 0 0 0 0 0 0 0 0
0 0 0 0 0 0 0 0 0 0 0 0 0 0 0 0 0 0 0 0 0 0 0 0 0 0 0 0 0 0 0 0 0 0 0 0 0 0 0 0 0 0 0 0
0 0 0 0 0 0 0 0 0 0 0 0 0 0 0 0 0 0 0 0 0 0 0 0 0 0 0 0 0 0 0 0 0 0 0 0 0 0 0 0 0 0 0 0
0 0 0 0 0 0 0 0 0 0 0 0 0 0 0 0 0 0 0 0 0 0 0 0 0 0 0 0 0 0 0 0 0 0 0 0 0 0 0 0 0 0 0 0
0 0 0 0 0 0 0 0 0 0 0 0 0 0 0 0 0 0 0 0 0 0 0 0 0 0 0 0 0 0 0 0 0 0 0 0 0 0 0 0 0 0 0 0
-1 -1 0 0 0 0 0 0 -2 0 0 0 0 0 0 0 0 0 0 0 0 0 0 0 0 0 0 0 0 0 0 0 0 0 0 0 0 0 0 0 0 0 0 0
0 -1 -2 0 0 0 -6 0 0 -8 -1 0 0 0 0 0 0 0 0 0 0 0 0 0 0 0 0 0 0 0 0 0 0 0 0 0 0 0 0 0 0 0 0 0
0 0 0 0 0 0 -1 -8 -9 -1 -4 0 0 0 0 0 0 0 0 0 0 0 0 0 0 0 0 0 0 0 0 0 0 0 0 0 0 0 0 0 0 0 0 0
0 -4 -2 0 0 0 0 0 0 -1 -1 0 0 0 0 0 0 0 0 0 0 0 0 0 0 0 0 0 0 0 0 0 0 0 0 0 0 0 0 0 0 0 0 0
0 0 0 0 0 0 0 0 0 0 0 0 0 0 0 0 0 0 0 0 0 0 0 0 0 0 0 0 0 0 0 0 0 0 0 0 0 0 0 0 0 0 0 0
0 0 0 0 0 0 0 0 0 0 0 0 0 0 0 0 0 0 0 0 0 0 0 0 0 0 0 0 0 0 0 0 0 0 0 0 0 0 0 0 0 0 0 0
0 0 0 0 0 0 0 0 0 0 0 0 0 0 0 0 0 0 0 0 0 0 0 0 0 0 0 0 0 0 0 0 0 0 0 0 0 0 0 0 0 0 0 0
0 0 0 0 0 0 0 0 0 0 0 0 0 0 0 0 0 0 0 0 0 0 0 0 0 0 0 0 0 0 0 0 0 0 0 0 0 0 0 0 0 0 0 0
0 0 0 0 0 0 0 0 0 0 0 0 0 0 0 0 0 0 0 0 0 0 0 0 0 0 0 0 0 -2 0 0 0 0 0 0 0 0 0 0 0 0 0 0
0 0 0 0 0 0 0 0 0 0 0 0 0 0 0 0 0 0 0 0 0 0 0 0 0 0 0 0 0 0 0 0 0 0 0 0 0 0 0 0 0 0 0 0
0 0 0 0 0 0 0 0 0 0 0 0 0 0 0 0 0 0 0 0 0 0 0 0 0 0 0 0 0 0 0 0 0 0 0 0 0 0 0 0 0 0 0 0
0 0 0 0 0 0 0 0 0 0 0 0 0 0 0 0 0 0 0 0 0 0 0 0 0 0 0 0 0 0 0 0 0 0 0 0 0 0 0 0 0 0 0 0
0 0 0 0 0 0 0 0 0 0 0 0 0 0 0 0 0 0 0 0 0 0 0 0 0 0 0 0 0 0 0 0 0 0 0 0 0 0 0 0 0 0 0 0
0 0 0 0 0 0 0 0 0 0 0 0 0 0 0 0 0 0 0 0 0 0 0 0 0 0 0 0 0 0 0 0 0 0 0 0 0 0 0 0 0 0 0 0
-15 -24 0 0 -51 -6 0 0 0 0 0 0 0 0 0 0 0 0 0 0 0 0 0 0 0 0 0 0 0 0 0 0 0 0 0 0 0 0 0 0 0 0 0 0
0 0 0 0 0 0 0 0 0 0 0 0 0 0 0 0 0 0 0 0 0 0 0 0 0 0 0 0 0 0 -2 0 0 0 0 0 0 0 0 0 0 0 0 0
0 0 0 0 0 0 0 0 0 0 0 0 -1 -3 0 0 0 0 0 0 0 0 0 0 0 0 0 0 0 0 -4 0 0 0 0 0 0 0 0 0 0 0 0 0
0 0 0 0 0 0 0 0 0 0 -3 -1 -1 -1 -1 -1 -1 -1 0 0 0 0 0 0 0 0 0 0 0 0 0 0 0 0 0 0 0 0 0 0 0 0 0 0
0 0 0 0 0 0 0 0 0 0 0 0 -1 0 0 0 -2 -1 0 0 0 0 0 0 0 0 0 0 0 0 0 0 0 0 0 0 0 0 0 0 0 0 0 0
0 0 0 0 0 0 0 0 0 -1 -1 0 0 -1 0 0 0 0 0 0 0 0 0 0 0 0 0 0 0 0 0 0 0 0 0 0 0 0 0 0 0 0 0 0
0 0 0 0 0 0 0 -1 -1 -1 -1 0 -1 -1 0 0 -1 -1 0 0 0 0 0 0 0 0 0 0 0 0 0 0 0 0 0 0 0 0 0 0 0 0 0 0
0 0 0 0 0 0 -1 0 0 -1 -1 0 0 0 0 0 0 0 0 0 0 0 0 0 0 0 0 0 0 0 0 0 0 0 0 0 0 0 0 0 0 0 0 0
Wind_Speed
5 10 8 9 7 5 5 5 4 5 7 9 3 7 10 12 17 19 21 23 19 7 1 9 10 12 14 13 13 14 14 14 13 12 11 12 13 12 12 12 10 9 9 7
5 9 7 9 9 6 7 9 13 13 13 9 8 9 14 14 15 16 18 19 18 16 5 2 5 12 14 14 15 16 15 14 13 13 13 13 13 13 12 11 11 10 9 9
3 7 5 7 10 12 3 2 5 4 4 8 7 10 11 12 14 14 16 17 17 14 12 5 8 13 15 16 14 15 15 13 13 15 15 13 14 14 13 13 11 10 9 9
3 4 1 2 8 5 4 8 9 9 8 8 9 5 10 12 12 14 15 16 18 16 14 12 8 10 12 14 17 16 15 17 15 14 16 15 14 14 13 11 11 10 9 8
2 5 9 2 8 5 4 3 8 7 8 9 15 3 2 15 13 12 12 13 14 16 16 18 15 14 12 12 14 17 20 18 17 16 16 17 17 15 13 12 8 8 8 9
4 4 5 4 9 9 6 3 8 9 9 8 9 4 3 11 11 11 12 13 17 18 18 21 15 20 18 18 16 16 16 17 18 16 16 17 16 16 13 12 11 8 8 8
7 5 3 9 13 8 5 2 8 5 7 5 1 3 7 7 9 5 11 15 18 18 18 20 6 12 16 15 18 14 13 14 16 17 16 16 15 12 13 13 11 10 9 6
3 5 10 6 8 5 2 3 7 9 9 4 4 5 6 8 10 7 10 15 17 18 17 18 20 3 8 13 12 13 13 15 15 16 14 13 17 13 14 13 12 11 10 6
8 3 3 7 5 4 4 7 11 4 5 4 6 4 5 9 10 7 6 10 12 15 17 16 15 18 7 6 12 14 16 16 16 16 15 15 16 15 13 13 11 10 9 8
11 9 14 4 7 10 13 16 10 7 8 6 7 7 6 9 10 7 3 6 9 12 15 15 14 15 15 9 11 13 16 16 15 16 15 15 12 13 12 12 11 11 10 9
15 11 7 12 10 10 10 9 13 14 9 8 8 10 8 10 10 6 5 5 5 6 11 14 14 16 16 12 13 14 14 14 14 13 15 14 13 13 13 13 14 14 12 11
13 11 9 8 8 12 14 15 15 19 15 13 11 13 13 10 8 6 8 9 6 6 7 13 13 14 18 19 13 16 14 13 13 12 12 12 12 6 5 11 14 12 16 13
19 17 14 14 15 18 20 20 20 18 18 18 15 12 13 9 9 12 12 8 8 10 8 8 12 13 14 15 14 15 17 15 12 12 12 12 12 13 11 6 11 15 17 17
16 15 18 16 14 15 17 18 21 20 18 14 14 9 12 15 13 12 12 10 8 9 9 7 8 14 14 15 23 18 17 16 14 12 12 12 12 13 12 14 13 7 13 17
13 16 19 21 19 18 17 15 17 17 16 17 14 13 13 15 15 14 12 10 10 8 9 9 10 10 9 13 20 14 13 11 12 12 12 12 12 13 12 11 11 13 10 5
18 19 18 19 18 18 17 17 19 18 16 16 16 14 13 14 14 13 9 7 6 9 8 10 11 10 4 9 15 13 13 14 12 11 11 12 12 13 12 12 11 11 11 12
16 17 16 15 16 17 17 16 16 16 16 15 15 14 14 14 12 12 12 9 11 13 14 15 14 8 4 6 12 10 9 8 14 12 12 13 12 13 12 12 12 13 12 12
17 16 12 12 14 14 14 15 14 14 13 15 14 14 14 14 16 16 15 13 12 13 13 12 9 7 8 8 7 10 4 10 11 12 11 12 13 12 12 12 12 12 10 12
9 10 10 12 13 14 16 14 13 14 15 15 14 16 16 17 17 17 14 13 13 15 14 15 14 13 10 9 5 10 8 11 13 10 10 11 10 11 11 12 12 12 12 12
9 12 11 13 13 12 14 14 15 16 16 16 16 16 18 18 17 17 15 19 20 17 15 16 13 14 10 9 8 10 10 13 14 12 11 12 12 11 11 14 13 12 12 13
10 9 12 12 14 15 15 15 15 17 17 18 18 21 21 21 18 17 19 17 23 17 18 19 14 11 10 8 6 7 7 11 11 12 13 14 13 13 12 12 12 12 12 11
12 12 14 15 15 17 16 16 17 17 18 20 22 23 23 24 22 22 24 25 15 16 13 12 13 16 11 10 6 6 10 13 13 11 11 11 12 13 13 13 12 12 12 11
13 14 14 15 16 17 18 18 19 19 21 21 21 22 21 19 16 17 21 16 15 18 14 11 11 14 16 10 9 10 11 13 12 12 12 12 13 13 13 14 13 12 12 11
15 15 16 16 16 17 21 22 19 21 21 21 22 22 20 17 17 17 17 18 17 18 17 14 12 17 18 11 12 12 11 12 12 11 11 13 11 11 10 11 12 11 11 12
16 17 16 17 18 16 20 19 19 19 21 20 20 19 22 17 18 14 14 17 23 18 14 19 18 21 13 12 11 11 10 11 12 12 12 12 12 12 11 11 11 12 11 12
16 13 14 18 16 15 15 15 14 14 14 16 15 15 14 14 13 16 16 18 16 18 14 10 12 13 12 11 11 12 12 11 12 12 13 12 12 12 12 11 11 11 11 11
15 16 14 14 13 14 13 14 15 16 17 15 17 14 13 11 9 8 12 13 13 13 12 11 12 13 11 11 11 13 12 10 12 11 11 11 11 11 12 12 10 10 9 10
Wind_Direction
314 302 295 277 274 261 244 268 238 282 326 329 354 33 17 11 10 11 1 2 356 358 259 165 161 160 154 152 162 162 160 154 155 149 149 147 146 147 142 142 139 136 128 125
259 259 296 286 286 239 238 249 263 275 283 331 35 52 30 19 9 9 1 355 355 354 359 250 187 164 161 164 169 167 166 160 151 147 147 153 152 147 144 139 139 138 139 141
240 12 327 295 239 239 219 244 281 245 35 349 349 26 32 15 10 0 354 352 346 344 336 251 204 184 181 172 166 168 163 153 163 159 154 156 154 150 148 150 146 149 143 141
270 332 309 206 320 242 154 49 33 58 34 2 322 302 68 27 9 355 348 345 341 332 323 304 230 210 187 182 172 171 170 155 170 170 156 154 155 154 150 151 155 155 149 150
194 223 295 325 28 5 345 92 30 35 11 352 334 313 188 9 359 352 340 336 327 321 311 283 230 192 187 188 185 172 170 169 171 171 163 156 158 160 155 150 148 157 155 151
213 220 241 27 324 305 282 165 8 13 352 331 350 40 297 334 338 349 345 342 336 330 339 351 221 182 177 179 187 190 185 176 167 167 167 162 162 162 156 154 154 153 154 165
244 259 263 345 333 304 186 15 319 296 301 293 358 233 286 306 331 350 343 346 345 343 356 353 313 177 184 186 196 185 176 169 168 168 164 162 157 165 156 155 150 151 157 156
222 209 243 16 3 36 294 216 281 310 273 305 309 296 313 325 331 334 353 353 357 350 347 2 360 248 202 197 173 172 174 174 170 164 164 162 160 158 158 155 156 155 149 149
187 230 253 317 187 250 274 299 286 267 279 267 291 270 299 316 318 313 0 351 358 350 344 350 358 356 252 205 176 171 172 179 171 165 168 166 162 162 159 163 159 161 164 166
245 232 247 232 278 286 286 285 250 248 263 248 264 265 279 303 301 304 324 349 348 348 337 338 343 338 346 225 187 177 176 173 170 169 167 168 170 169 165 169 168 166 169 171
244 239 272 261 252 254 272 275 292 294 259 251 263 270 265 283 279 269 293 286 309 340 324 321 334 330 324 287 185 185 178 174 175 172 173 172 177 178 174 182 177 174 179 170
234 230 234 250 258 262 264 267 264 277 261 268 272 268 265 262 252 268 294 283 255 278 315 311 325 330 321 334 195 185 182 178 180 176 176 173 169 148 76 164 164 156 154 165
244 247 246 253 258 262 261 262 263 254 268 275 259 254 251 238 254 283 283 267 251 248 245 281 309 308 311 311 328 217 187 183 176 178 174 174 170 166 149 82 140 151 155 157
228 237 252 250 248 248 253 258 262 262 265 262 263 238 256 264 266 268 266 253 253 244 228 246 276 287 309 311 306 221 207 182 179 177 177 175 174 169 166 162 163 168 170 166
219 225 237 251 258 256 258 260 259 261 265 267 262 254 253 257 264 261 255 264 263 250 221 223 241 260 306 312 315 212 194 189 182 176 177 175 174 171 168 175 181 168 150 166
234 240 245 246 249 252 253 256 257 259 258 257 258 251 240 242 253 251 241 245 257 270 259 239 240 241 254 306 305 296 212 189 181 174 169 170 177 173 171 173 175 175 176 171
239 244 239 245 248 251 250 253 255 258 261 254 255 255 252 246 243 250 258 246 259 268 272 269 251 223 192 246 284 297 211 197 186 177 170 174 178 177 177 177 177 175 181 177
235 241 250 254 263 264 259 253 248 247 245 249 252 253 247 246 249 253 252 248 246 254 259 267 252 227 225 233 250 280 234 188 186 180 172 173 178 176 175 177 178 176 165 168
243 243 248 251 253 253 248 244 245 248 253 254 254 252 252 251 252 252 250 242 240 248 249 263 252 212 217 225 256 274 234 194 187 173 174 170 171 173 174 176 178 173 165 163
248 230 225 235 238 240 253 255 253 255 255 255 253 252 254 252 247 244 240 241 241 247 254 246 231 214 215 225 232 263 213 184 183 174 169 168 172 178 178 178 170 170 168 168
269 258 255 255 262 261 253 252 255 259 260 259 262 262 261 260 250 244 244 246 247 246 241 242 232 218 204 197 233 228 199 191 183 178 174 174 171 175 176 177 174 171 173 176
261 254 259 258 258 257 249 246 253 261 264 264 258 256 256 256 253 249 244 243 249 231 228 228 230 221 204 183 216 240 206 198 191 181 175 173 172 173 176 176 176 174 173 174
263 264 261 263 261 258 262 265 272 272 268 260 259 259 255 253 248 243 246 239 234 230 226 224 219 206 192 186 205 227 201 189 183 179 178 179 180 180 175 178 175 175 171 169
271 271 265 263 266 275 278 279 279 274 269 265 257 251 250 252 247 238 242 237 219 216 221 219 204 193 191 201 201 205 195 190 186 177 177 179 179 174 172 176 175 173 172 168
273 271 268 275 278 279 282 281 281 276 273 269 267 262 250 240 238 240 223 224 218 209 211 208 196 190 192 197 190 186 190 185 182 175 172 175 176 175 172 175 176 173 171 175
270 271 276 279 278 278 278 278 275 276 277 274 271 265 258 253 239 239 221 207 205 203 208 189 193 194 190 188 175 176 185 184 177 175 172 170 173 170 168 166 169 175 172 174
277 279 282 282 275 275 275 272 270 271 270 269 268 267 261 248 233 212 183 183 191 194 195 187 191 189 179 175 162 170 174 171 178 167 165 165 170 169 168 166 167 169 165 167